COSMOS 628

Satellite information

Favourite Embed

Satellite Type and Status

PAYLOADIN ORBIT

Key statistics

Satellite COSMOS 628 at a glance.

Uptime

18959

Days in orbit

Revolutions

≈ 13.8

Per day

Orbit

LEO

Low Earth Orbit

Inclination

83.0

Latest

Satellite identification and parameters

Extended collection of information and parameters for COSMOS 628.

Object identification

Identified? True

Debris? False

Object name: COSMOS 628

International designator: 1974-001A

Object number (NORAD): 7094

Object ID (CCSDS): 7094

Country: COMMONWEALTH OF INDEPENDENT STATES (CIS)

Current information (Y/N): Y

RCS size: LARGE

Orbital parameters

Period: 104.655 minutes

Inclination: 82.9557 deg

SMA: 7356.421 km

Apoapsis: 1004.347 km

Periapsis: 952.225 km

RAAN: 320.2891 deg

Eccentricy: 0.0035426

Argument of periapsis: 306.1793 deg

Mean anomaly: 119.0782 deg

Mean motion: 13.75950795 rev/day

Mean motion (dot): 0.0000009 rev/day2

B* drag term: 0.000077101 1/REarth

Two-line elements (TLE)

Creation date: Dec. 12, 2025, 7:16 a.m.

Reference frame: TEME

Reference center: EARTH

Epoch: Dec. 12, 2025, 12:41 a.m. UTC

TLE line 0: 0 COSMOS 628

TLE line 1: 1 7094U 74001A 25346.02886336 .00000090 00000-0 77101-4 0 9997

TLE line 2: 2 7094 82.9557 320.2891 0035426 306.1793 119.0782 13.75950795604843

Live tracking on map

Real-time ground track for satellite COSMOS 628.

In-orbit conjunctions

A list of the most updated potential collisions computed for object COSMOS 628.

Target Orbit TCA Probability of collision Miss distance Type
YAOGAN 30 DEB SSO 2024-06-30 03:46:10 0.0001710607 164.0 (m) DEBRIS

Associated space launch

The first soviet navigation system called Tsiklon consisted of Zaliv satellites in low earth orbit.

COSMOS 628 was lifted into orbit during the mission ‘Kosmos-3M | Zaliv 16’, on board a Kosmos-3M space rocket.

The launch took place on Jan. 17, 1974, 10:07 a.m. from 132/2.

For more information about the launch, click the button.

Launch to space Kosmos-3M | Zaliv 16
Kosmos-3M | Zaliv 16

Agency: N/A

Status: Launch Successful

Launch date: Jan. 17, 1974, 10:07 a.m. UTC

Rocket: Kosmos-3M

Launch pad: 132/2

Location: Plesetsk Cosmodrome, Russian Federation

...

Latest news about this satellite

There are no fresh news available about this satellite. Check back as we update our databases every day.


Newsletter sign-up

Weekly statistics, charts and insights to help you stay on top of the space industry.